This is the latest recevied weather packets stored in our database for station/object K1BES. If no packets are shown the sender has not sent any weather packets the latest 10 day(s).
| Time | Temp. | Humidity | Pressure | Rain* | Wind** | Luminosity | Snow |
|---|---|---|---|---|---|---|---|
| 1788650429 | 30° C | 77% | 1015.1 hPa | 0 mm | - | 19 W/m² | - |
| 1788650124 | 30° C | 76% | 1015.2 hPa | 0 mm | - | 22 W/m² | - |
| 1788649821 | 30° C | 76% | 1015 hPa | 0 mm | - | 24 W/m² | - |
| 1788649520 | 30.56° C | 75% | 1014.9 hPa | 0 mm | - | 26 W/m² | - |
| 1788649218 | 30.56° C | 76% | 1015 hPa | 0 mm | - | 30 W/m² | - |
| 1788648913 | 30.56° C | 75% | 1015.1 hPa | 0 mm | - | 31 W/m² | - |
| 1788648609 | 30.56° C | 75% | 1014.7 hPa | 0 mm | - | 34 W/m² | - |
| 1788648303 | 30.56° C | 74% | 1015 hPa | 0 mm | - | 35 W/m² | - |
| 1788648002 | 30.56° C | 72% | 1015.1 hPa | 0 mm | - | 36 W/m² | - |
| 1788647701 | 30.56° C | 73% | 1015.1 hPa | 0 mm | - | 37 W/m² | - |
| 1788647396 | 30.56° C | 73% | 1015 hPa | 0 mm | - | 39 W/m² | - |
| 1788647095 | 31.11° C | 73% | 1015 hPa | 0 mm | - | 42 W/m² | - |
| 1788646791 | 31.11° C | 73% | 1015 hPa | 0 mm | - | 44 W/m² | - |
| 1788646487 | 31.11° C | 73% | 1014.9 hPa | 0 mm | - | 43 W/m² | - |
| 1788646183 | 31.11° C | 73% | 1014.7 hPa | 0 mm | - | 55 W/m² | - |
| 1788645879 | 31.11° C | 73% | 1014.9 hPa | 0 mm | - | 51 W/m² | - |
| 1788645578 | 31.11° C | 72% | 1014.9 hPa | 0 mm | - | 47 W/m² | - |
| 1788645274 | 31.11° C | 74% | 1014.7 hPa | 0 mm | - | 48 W/m² | - |
| 1788644970 | 31.11° C | 72% | 1015 hPa | 0 mm | - | 52 W/m² | - |
| 1788644666 | 31.11° C | 73% | 1014.8 hPa | 0 mm | - | 52 W/m² | - |
| 1788644366 | 31.11° C | 72% | 1015 hPa | 0 mm | - | 52 W/m² | - |
| 1788644062 | 31.67° C | 72% | 1015 hPa | 0 mm | - | 56 W/m² | - |
| 1788643757 | 31.67° C | 72% | 1014.8 hPa | 0 mm | - | 56 W/m² | - |
| 1788643452 | 31.11° C | 73% | 1014.7 hPa | 0 mm | - | 56 W/m² | - |
| 1788643151 | 31.67° C | 73% | 1014.8 hPa | 0 mm | - | 57 W/m² | - |
* Rain latest hour (hover to see other rain measurements)
** Current wind speed in m/s (hover to see current wind gust speed)